Regional Weather Roundup
Issued by NWS

Home | Current Version | Previous Version | Text Only | Print | Product List | Glossary Off
Versions: 1 2 3 4 5 6 7 8 9 10 11 12 13 14 15 16 17 18 19 20 21 22 23 24 25 26 27 28 29 30 31 32 33 34 35 36 37 38 39 40 41 42 43 44 45 46 47 48 49 50

000
ASUS45 KCYS 110810
RWRWY

WYOMING REGIONAL WEATHER ROUNDUP
NATIONAL WEATHER SERVICE CHEYENNE WY
100 AM MST MON DEC 11 2017

NOTE:  "FAIR" INDICATES FEW OR NO CLOUDS BELOW 12,000 FEET
WITH NO SIGNIFICANT WEATHER AND/OR OBSTRUCTIONS TO VISIBILITY.

WYZ001-110900-
YELLOWSTONE NATIONAL PARK

CITY           SKY/WX    TMP DP  RH WIND       PRES   REMARKS
LK YELLOWSTONE   N/A      5   2  87 NW3       30.59F
W YELLOWSTONE  NOT AVBL

$$
WYZ002>013-054>058-071-098>099-110900-
NORTHERN WYOMING

CITY           SKY/WX    TMP DP  RH WIND       PRES   REMARKS
JACKSON        NOT AVBL
CODY           NOT AVBL
GREYBULL       FAIR      18  11  74 S3        30.40F
WORLAND        FAIR      18  15  88 S5        30.39S WCI  11
SHERIDAN       FAIR      40  12  32 CALM      30.32R
BUFFALO        FAIR      45   6  20 N8        30.32S
GILLETTE       FAIR      37  15  40 W9        30.28S WCI  30
HULETT         FAIR      45  18  33 NW12G20   30.24F
NEWCASTLE      FAIR      41  10  28 NW13      30.25S

$$
WYZ014>020-022>026-101>103-110900-
CENTRAL WYOMING

CITY           SKY/WX    TMP DP  RH WIND       PRES   REMARKS
BIG PINEY      FAIR      22   1  40 CALM      30.51F
PINEDALE       FAIR      27   3  36 NW14      30.50F WCI  15
DUBOIS         FAIR      34  -4  19 NW18      30.47S WCI  23
LANDER         FAIR      21  14  74 W6        30.41F WCI  13
RIVERTON       FAIR      19  12  74 W7        30.42F WCI  10
CASPER         FAIR      33  15  47 SW17G23   30.36F WCI  22
DOUGLAS        FAIR      27  18  69 NW8       30.34F WCI  19

$$
WYZ021-027>030-104>119-110900-
SOUTHERN WYOMING

CITY           SKY/WX    TMP DP  RH WIND       PRES   REMARKS
EVANSTON       FAIR      26   6  42 CALM      30.56R
FORT BRIDGER   FAIR      35   3  26 W13       30.55F WCI  26
ROCK SPRINGS   FAIR      31   6  35 SW16      30.50S WCI  20
DIXON          FAIR      11   4  75 CALM      30.56S
RAWLINS        FAIR      27   9  46 SE6       30.47F WCI  20
SARATOGA       FAIR      18   7  62 CALM      30.49F
LARAMIE        FAIR      16   4  59 W5        30.40F WCI   9
CHEYENNE       FAIR      41  -1  17 NW15G24   30.33F
TORRINGTON     FAIR      33  13  43 NW9       30.28F WCI  25
PINE BLUFFS    FAIR      39   1  20 MISG      30.31S

$$



USA.gov is the U.S. government's official web portal to all federal, state and local government web resources and services.